Date String (YYYY-MM-DD hh:mm:ss) UTC,Instrument flags,Ambient pressure (hPa),Sample flow (lpm),Bypass flow (lpm),Sample temperature (°C),Ambient temperature (°C),ASC tube jacket temperature (°C),LED temperature (°C),Box temperature (°C),Sample RH (%),Span deviation,Mass concentration (μg/m³),Mass concentration (μg/m³),Mass concentration (μg/m³)
DateTimeUTC,F1_M11,P_M11,Q1_M11,Q2_M11,T1_M11,T2_M11,T3_M11,T4_M11,T5_M11,U1_M11,ZSPAN_M11,X0_M11,X2_M11,X1_M11
2022-04-09 03:00:00,,0824.1,5.01,0.00,29.2,28.2,00.0,38.2,30.9,06.7,0000.0,0005.22,0002.57,0001.32
2022-04-09 03:01:00,,0824.1,4.98,0.00,29.2,28.2,00.0,38.2,30.9,06.6,0000.0,0005.74,0002.60,0001.30
2022-04-09 03:02:00,,0824.1,5.01,0.00,29.2,28.2,00.0,38.2,30.9,06.6,0000.0,0006.00,0002.64,0001.30
2022-04-09 03:03:00,,0824.1,5.00,0.00,29.2,28.2,00.0,38.2,30.9,06.7,0000.0,0005.95,0002.63,0001.30
2022-04-09 03:04:00,,0824.0,4.99,0.00,29.2,28.2,00.0,38.2,30.9,06.7,0000.0,0006.01,0002.62,0001.28
2022-04-09 03:05:00,,0824.1,5.00,0.00,29.2,28.2,00.0,38.2,30.9,06.7,0000.0,0006.22,0002.64,0001.27
2022-04-09 03:06:00,,0824.1,5.02,0.00,29.2,28.2,00.0,38.2,30.9,06.7,0000.0,0006.20,0002.63,0001.26
2022-04-09 03:07:00,,0824.1,4.99,0.00,29.2,28.2,00.0,38.2,30.8,06.7,0000.0,0006.06,0002.55,0001.25
2022-04-09 03:08:00,,0824.1,4.99,0.00,29.2,28.2,00.0,38.1,30.9,06.7,0000.0,0005.90,0002.51,0001.23
2022-04-09 03:09:00,,0824.1,5.02,0.00,29.2,28.2,00.0,38.2,30.9,06.7,0000.0,0005.82,0002.47,0001.21
2022-04-09 03:10:00,,0824.1,4.99,0.00,29.2,28.2,00.0,38.2,30.9,06.7,0000.0,0005.91,0002.45,0001.19
2022-04-09 03:11:00,,0824.1,4.99,0.00,29.2,28.2,00.0,38.2,30.9,06.8,0000.0,0006.27,0002.55,0001.21
2022-04-09 03:12:00,,0824.1,5.02,0.00,29.2,28.2,00.0,38.2,30.9,06.7,0000.0,0005.93,0002.56,0001.22
2022-04-09 03:13:00,,0824.1,5.00,0.00,29.2,28.2,00.0,38.2,30.9,06.7,0000.0,0005.60,0002.50,0001.21
2022-04-09 03:14:00,,0824.1,4.99,0.00,29.2,28.2,00.0,38.2,30.9,06.8,0000.0,0005.45,0002.41,0001.19
2022-04-09 03:15:00,,0824.1,5.00,0.00,29.2,28.2,00.0,38.2,30.8,06.8,0000.0,0005.29,0002.37,0001.18
2022-04-09 03:16:00,,0824.1,5.01,0.00,29.2,28.2,00.0,38.2,30.9,06.8,0000.0,0005.15,0002.42,0001.18
2022-04-09 03:17:00,,0824.1,4.99,0.00,29.2,28.2,00.0,38.2,30.9,06.8,0000.0,0005.17,0002.43,0001.18
2022-04-09 03:18:00,,0824.0,5.01,0.00,29.2,28.2,00.0,38.2,30.9,06.8,0000.0,0005.33,0002.52,0001.19
2022-04-09 03:19:00,,0824.0,4.99,0.00,29.2,28.2,00.0,38.2,30.9,06.8,0000.0,0005.29,0002.51,0001.19
2022-04-09 03:20:00,,0824.0,5.00,0.00,29.2,28.2,00.0,38.2,30.9,06.9,0000.0,0005.37,0002.54,0001.20
2022-04-09 03:21:00,,0824.1,5.00,0.00,29.2,28.2,00.0,38.2,30.9,06.9,0000.0,0005.67,0002.55,0001.21
2022-04-09 03:22:00,,0824.1,5.01,0.00,29.2,28.2,00.0,38.2,30.8,06.8,0000.0,0005.11,0002.42,0001.21
2022-04-09 03:23:00,,0824.0,5.01,0.00,29.2,28.2,00.0,38.2,30.8,06.9,0000.0,0004.93,0002.35,0001.20
2022-04-09 03:24:00,,0824.0,4.99,0.00,29.2,28.2,00.0,38.2,30.9,06.9,0000.0,0005.01,0002.38,0001.21
2022-04-09 03:25:00,,0824.1,5.00,0.00,29.1,28.2,00.0,38.2,30.9,06.9,0000.0,0005.23,0002.48,0001.24
2022-04-09 03:26:00,,0824.1,5.01,0.00,29.1,28.2,00.0,38.2,30.9,06.9,0000.0,0005.51,0002.59,0001.27
2022-04-09 03:27:00,,0824.0,5.00,0.00,29.1,28.1,00.0,38.2,30.8,06.9,0000.0,0005.62,0002.58,0001.29
2022-04-09 03:28:00,,0824.1,4.99,0.00,29.1,28.1,00.0,38.2,30.9,06.9,0000.0,0005.85,0002.62,0001.31
2022-04-09 03:29:00,,0824.0,4.99,0.00,29.1,28.2,00.0,38.2,30.9,06.9,0000.0,0005.81,0002.57,0001.30
2022-04-09 03:30:00,,0824.1,5.00,0.00,29.2,28.2,00.0,38.2,30.9,06.9,0000.0,0005.91,0002.61,0001.30
2022-04-09 03:31:00,,0824.1,5.01,0.00,29.2,28.2,00.0,38.2,30.9,06.8,0000.0,0005.85,0002.59,0001.30
2022-04-09 03:32:00,,0824.1,5.01,0.00,29.1,28.2,00.0,38.1,30.9,06.9,0000.0,0005.52,0002.62,0001.30
2022-04-09 03:33:00,,0824.1,4.99,0.00,29.1,28.2,00.0,38.1,30.8,06.9,0000.0,0005.68,0002.69,0001.30
2022-04-09 03:34:00,,0824.1,4.99,0.00,29.1,28.2,00.0,38.1,30.8,06.9,0000.0,0005.94,0002.78,0001.30
2022-04-09 03:35:00,,0824.1,5.02,0.00,29.1,28.1,00.0,38.1,30.8,07.0,0000.0,0006.08,0002.77,0001.28
2022-04-09 03:36:00,,0824.1,4.98,0.00,29.0,28.1,00.0,38.1,30.7,06.9,0000.0,0006.08,0002.74,0001.28
2022-04-09 03:37:00,,0824.0,5.01,0.00,29.0,28.1,00.0,38.1,30.7,07.0,0000.0,0006.16,0002.69,0001.27
2022-04-09 03:38:00,,0824.0,5.01,0.00,29.0,28.1,00.0,38.1,30.8,07.0,0000.0,0006.31,0002.68,0001.26
2022-04-09 03:39:00,,0824.1,4.99,0.00,29.0,28.1,00.0,38.1,30.8,07.0,0000.0,0006.26,0002.68,0001.25
2022-04-09 03:40:00,,0824.1,4.99,0.00,29.0,28.1,00.0,38.1,30.8,07.0,0000.0,0006.20,0002.69,0001.26
2022-04-09 03:41:00,,0824.0,5.00,0.00,29.0,28.2,00.0,38.1,30.8,07.0,0000.0,0006.45,0002.68,0001.26
2022-04-09 03:42:00,,0824.1,5.02,0.00,29.1,28.2,00.0,38.1,30.9,07.0,0000.0,0006.31,0002.63,0001.26
2022-04-09 03:43:00,,0824.1,5.00,0.00,29.1,28.2,00.0,38.1,30.9,07.0,0000.0,0006.20,0002.57,0001.26
2022-04-09 03:44:00,,0824.0,5.00,0.00,29.1,28.3,00.0,38.1,30.9,07.0,0000.0,0006.13,0002.51,0001.27
2022-04-09 03:45:00,,0824.1,5.00,0.00,29.1,28.3,00.0,38.1,30.9,06.9,0000.0,0005.92,0002.43,0001.28
2022-04-09 03:46:00,,0824.1,5.01,0.00,29.1,28.3,00.0,38.1,30.9,06.9,0000.0,0006.29,0002.47,0001.30
2022-04-09 03:47:00,,0824.1,4.99,0.00,29.1,28.3,00.0,38.1,30.9,07.0,0000.0,0007.00,0002.58,0001.30
2022-04-09 03:48:00,,0824.1,5.01,0.00,29.1,28.3,00.0,38.1,30.9,07.0,0000.0,0006.90,0002.58,0001.29
2022-04-09 03:49:00,,0824.1,4.99,0.00,29.1,28.3,00.0,38.1,31.0,07.0,0000.0,0006.60,0002.60,0001.30
2022-04-09 03:50:00,,0824.0,4.99,0.00,29.1,28.3,00.0,38.1,31.0,07.0,0000.0,0006.67,0002.63,0001.29
2022-04-09 03:51:00,,0823.9,5.01,0.00,29.2,28.3,00.0,38.1,31.0,07.0,0000.0,0006.64,0002.63,0001.30
2022-04-09 03:52:00,,0824.0,5.01,0.00,29.2,28.3,00.0,38.1,31.0,07.0,0000.0,0006.43,0002.61,0001.30
2022-04-09 03:53:00,,0824.0,5.00,0.00,29.2,28.3,00.0,38.1,31.0,07.0,0000.0,0006.85,0002.73,0001.32
2022-04-09 03:54:00,,0824.0,5.00,0.00,29.2,28.4,00.0,38.1,31.0,07.0,0000.0,0007.27,0002.82,0001.33
2022-04-09 03:55:00,,0823.9,5.00,0.00,29.2,28.4,00.0,38.1,31.0,07.0,0000.0,0007.34,0002.86,0001.34
2022-04-09 03:56:00,,0823.9,5.00,0.00,29.2,28.4,00.0,38.1,31.0,07.0,0000.0,0007.40,0002.90,0001.36
2022-04-09 03:57:00,,0823.9,5.00,0.00,29.2,28.4,00.0,38.1,31.0,07.0,0000.0,0006.88,0002.81,0001.36
2022-04-09 03:58:00,,0823.9,5.00,0.00,29.2,28.4,00.0,38.1,31.0,07.0,0000.0,0005.87,0002.66,0001.36
2022-04-09 03:59:00,,0823.9,5.01,0.00,29.2,28.4,00.0,38.1,31.1,07.0,0000.0,0005.78,0002.61,0001.35
